Gibraltar, Gibraltar

11:07 AM CET on November 15, 2019 (GMT +0100)
Gibraltar Air Base

Weather History for LXGB - October, 2019

Change the Weather History Date:

Tuesday, October 22, 2019

  Actual Average Record
Temperature  
Mean Temperature 60 °F -  
Max Temperature 66 °F 65 °F 91 °F (2014)
Min Temperature 55 °F 57 °F 55 °F (2000)
Degree Days  
Heating Degree Days 4    
Growing Degree Days 10 (Base 50)    
Moisture  
Dew Point 49 °F    
Average Humidity 64    
Maximum Humidity 82    
Minimum Humidity 40    
Precipitation  
Precipitation 0.00 in - - ()
Sea Level Pressure  
Sea Level Pressure 29.89 in    
Wind  
Wind Speed 7 mph ()    
Max Wind Speed 15 mph    
Max Gust Speed 23 mph    
Visibility 8.6 miles    
Events      
Averages and records for this station are not official NWS values.
T = Trace of Precipitation, MM = Missing Value Source: Averaged Metar Reports

Daily Weather History Graph

Daily Weather History Graph

Search for Another Location

Airport or City:

Astronomy

Oct. 22, 2019 Rise Set
Actual Time 8:34 AM CEST 7:37 PM CEST
Civil Twilight 8:08 AM CEST 8:03 PM CEST
Nautical Twilight 7:38 AM CEST 8:33 PM CEST
Astronomical Twilight 7:08 AM CEST 9:02 PM CEST
Moon 1:43 AM CEST (10/22) 4:21 PM CEST (10/22)
Length of Visible Light 11h 55m
Length of Day
11h 02m
Last Quarter, 40% of the Moon is Illuminated
Oct 22
Last Quarter
Oct 28
New
Nov 4
First Quarter
Nov 12
Full
Nov 19
Last Quarter

Hourly Weather History & Observations

Time (CEST) Temp. Dew Point Humidity Pressure Visibility Wind Dir Wind Speed Gust Speed Precip Events Conditions
12:50 AM 60 °F 51 °F 64% 29.97 in 14 mi WSW 6.9 mph - -   Partly Cloudy
12:50 AM 60.8 °F 51.8 °F 72% 29.95 in 6.2 mi WSW 6.9 mph - N/A   Scattered Clouds
1:50 AM 60 °F 50 °F 61% 29.98 in 12 mi West 4.6 mph - -   Mostly Cloudy
1:50 AM 60.8 °F 50.0 °F 68% 29.98 in 6.2 mi West 4.6 mph - N/A   Mostly Cloudy
2:50 AM 59.0 °F 51.8 °F 77% 29.95 in 6.2 mi WSW 6.9 mph - N/A   Partly Cloudy
3:50 AM 58 °F 49 °F 65% 29.94 in 14 mi WSW 4.6 mph - -   Scattered Clouds
3:50 AM 59.0 °F 50.0 °F 72% 29.92 in 6.2 mi WSW 4.6 mph - N/A   Partly Cloudy
4:50 AM 57.2 °F 48.2 °F 72% 29.92 in 6.2 mi WSW 5.8 mph - N/A   Unknown
5:50 AM 57.2 °F 50.0 °F 77% 29.89 in 6.2 mi WSW 8.1 mph - N/A   Scattered Clouds
6:21 AM 55.4 °F 50.0 °F 82% 29.89 in - WSW 6.9 mph - N/A   Clear
6:50 AM 56 °F 50 °F 73% 29.90 in 31 mi SW 6.9 mph - -   Scattered Clouds
6:50 AM 55.4 °F 50.0 °F 82% 29.89 in - SW 6.9 mph - N/A   Clear
7:50 AM 56 °F 50 °F 75% 29.90 in 31 mi WSW 5.8 mph - -   Scattered Clouds
7:50 AM 55.4 °F 50.0 °F 82% 29.89 in 6.2 mi WSW 5.8 mph - N/A   Partly Cloudy
8:50 AM 56 °F 50 °F 73% 29.90 in 31 mi West 5.8 mph - -   Scattered Clouds
8:50 AM 55.4 °F 50.0 °F 82% 29.89 in 6.2 mi West 5.8 mph - N/A   Partly Cloudy
9:24 AM 57.2 °F 48.2 °F 72% 29.89 in 6.2 mi WSW 4.6 mph - N/A   Partly Cloudy
9:50 AM 57 °F 50 °F 70% 29.91 in 37 mi WSW 5.8 mph - -   Scattered Clouds
9:50 AM 57.2 °F 50.0 °F 77% 29.89 in 6.2 mi WSW 5.8 mph - N/A   Scattered Clouds
10:21 AM 55.4 °F 50.0 °F 82% 29.92 in 6.2 mi West 5.8 mph - N/A   Scattered Clouds
10:50 AM 57.2 °F 50.0 °F 77% 29.89 in 6.2 mi West 5.8 mph - N/A   Scattered Clouds
11:26 AM 60.8 °F 50.0 °F 68% 29.89 in 6.2 mi SW 5.8 mph - N/A   Scattered Clouds
11:50 AM 63 °F 49 °F 49% 29.90 in 31 mi SW 6.9 mph - -   Scattered Clouds
11:50 AM 62.6 °F 48.2 °F 59% 29.89 in 6.2 mi SW 6.9 mph - N/A   Scattered Clouds
12:21 PM 64.4 °F 51.8 °F 64% 29.89 in 6.2 mi SSW 9.2 mph - N/A   Partly Cloudy
12:50 PM 66.2 °F 50.0 °F 56% 29.89 in 6.2 mi WSW 11.5 mph - N/A   Partly Cloudy
1:23 PM 64.4 °F 50.0 °F 59% 29.86 in 6.2 mi SW 12.7 mph - N/A   Partly Cloudy
1:50 PM 66.2 °F 48.2 °F 52% 29.86 in 6.2 mi SW 10.4 mph - N/A   Mostly Cloudy
2:50 PM 65 °F 47 °F 40% 29.86 in 19 mi WSW 15.0 mph - -   Scattered Clouds
2:50 PM 66.2 °F 46.4 °F 49% 29.83 in 6.2 mi WSW 15.0 mph - N/A   Mostly Cloudy
3:20 PM 66.2 °F 48.2 °F 52% 29.83 in 6.2 mi SW 11.5 mph - N/A   Mostly Cloudy
3:50 PM 64.4 °F 48.2 °F 56% 29.83 in 6.2 mi SW 11.5 mph 23.0 mph N/A   Mostly Cloudy
4:35 PM 66.2 °F 48.2 °F 52% 29.83 in 6.2 mi WSW 11.5 mph - N/A   Scattered Clouds
4:50 PM 65 °F 47 °F 41% 29.84 in 19 mi West 12.7 mph - -   Partly Cloudy
4:50 PM 64.4 °F 46.4 °F 52% 29.83 in 6.2 mi West 12.7 mph - N/A   Mostly Cloudy
5:20 PM 64.4 °F 46.4 °F 52% 29.83 in 6.2 mi West 11.5 mph - N/A   Mostly Cloudy
5:50 PM 65 °F 48 °F 43% 29.85 in 19 mi West 9.2 mph - -   Scattered Clouds
5:50 PM 64.4 °F 48.2 °F 56% 29.83 in 6.2 mi West 9.2 mph - N/A   Mostly Cloudy
6:50 PM 62.6 °F 48.2 °F 59% 29.83 in 6.2 mi WNW 12.7 mph - N/A   Partly Cloudy
7:50 PM 62 °F 47 °F 48% 29.86 in 14 mi WNW 10.4 mph - -   Mostly Cloudy
8:50 PM 60.8 °F 48.2 °F 63% 29.86 in 6.2 mi West 13.8 mph - N/A   Overcast
9:50 PM 61 °F 48 °F 52% 29.88 in 15 mi WNW 12.7 mph - -   Overcast
10:50 PM 60 °F 51 °F 63% 29.89 in 14 mi WNW 12.7 mph - -   Partly Cloudy
10:50 PM 60.8 °F 50.0 °F 68% 29.89 in 6.2 mi WNW 12.7 mph - N/A   Mostly Cloudy
11:50 PM 60 °F 52 °F 67% 29.90 in 15 mi West 11.5 mph - -   Partly Cloudy
11:50 PM 60.8 °F 51.8 °F 72% 29.89 in 6.2 mi West 11.5 mph - N/A   Scattered Clouds